Simultaneous Nadir Overpasses (SNOs) Predictions

Prediction of SNOs between METOP-A and TERRA Satellite Orbit:

Table of predicted SNOs for the next 14.0 days since TLE Epoch: 2/11/2012
Index Date (METOP-A) Time (METOP-A) METOP-A Lat,Lon Date (TERRA) Time (TERRA) TERRA Lat,Lon Distance(km) Time Diff (sec)
1 02/12/2012 06:57:57 81.28, 122.01 02/12/2012 06:59:04 81.29, 122.06 1.28 67
2 02/12/2012 07:48:37 -81.29, -70.17 02/12/2012 07:48:31 -81.29, -70.33 2.78 6
3 02/15/2012 02:32:23 81.27,-171.96 02/15/2012 02:33:23 81.27,-171.86 1.73 60
4 02/15/2012 03:23:02 -81.29, -3.70 02/15/2012 03:22:49 -81.29, -3.86 2.58 13
5 02/17/2012 22:06:46 81.28,-105.12 02/17/2012 22:07:39 81.29,-105.11 0.70 53
6 02/17/2012 22:57:27 -81.28, 62.39 02/17/2012 22:57:06 -81.29, 62.53 2.44 21
7 02/20/2012 17:41:11
